DW9727 Weather Reports


Display with metric or nautical units.
time (UTC)temp
F
wind
direction
speed
MPH
gust
MPH
rain 1hr
in
rain 24hr
in
rain mn
in
humidity
%
barometer
mb
20260906094710 75 44 1.0 3.0 0.00 0.00 0.00 87 1011.0
20260906093710 76 101 0.0 2.0 0.00 0.00 0.00 87 1010.9
20260906092711 76 101 0.0 0.0 0.00 0.00 0.00 87 1010.8
20260906091710 76 83 0.0 0.0 0.00 0.00 0.00 87 1010.9
20260906090711 76 83 0.0 0.0 0.00 0.00 0.00 87 1010.7
20260906085711 76 83 0.0 1.0 0.00 0.00 0.00 87 1010.9
20260906084710 77 106 0.0 0.0 0.00 0.00 0.00 87 1010.9
20260906083710 77 107 0.0 0.0 0.00 0.00 0.00 87 1010.9
20260906082711 77 107 0.0 2.0 0.00 0.00 0.00 87 1011.0
20260906081711 77 108 0.0 2.0 0.00 0.00 0.00 87 1011.2
20260906080710 78 104 0.0 3.0 0.00 0.00 0.00 86 1011.2
20260906075711 78 74 1.0 2.0 0.00 0.00 0.00 86 1011.3
20260906074711 78 69 1.0 2.0 0.00 0.00 0.00 85 1011.2
20260906073710 79 50 1.0 3.0 0.00 0.00 0.00 85 1011.0
20260906070711 79 119 1.0 7.0 0.00 0.00 0.00 85 1011.1
20260906064711 79 125 4.0 10.0 0.00 0.00 0.00 85 1010.9
20260906063711 79 124 3.0 9.0 0.00 0.00 0.00 86 1011.0
20260906062710 79 120 5.0 9.0 0.00 0.00 0.00 87 1011.0
20260906061710 78 86 1.0 3.0 0.00 0.00 0.00 87 1011.2
20260906060710 78 115 2.0 6.0 0.00 0.00 0.00 87 1011.0
20260906055711 78 111 2.0 6.0 0.00 0.00 0.00 87 1011.1
20260906054711 78 109 2.0 7.0 0.00 0.00 0.00 87 1011.2
20260906053711 79 88 4.0 8.0 0.00 0.00 0.00 86 1011.2
20260906052711 79 89 2.0 7.0 0.00 0.00 0.00 86 1011.2
20260906045711 79 96 2.0 6.0 0.00 0.00 0.00 85 1011.2
20260906044710 80 70 3.0 5.0 0.00 0.00 0.00 85 1011.3
20260906043711 80 94 2.0 7.0 0.00 0.00 0.00 84 1011.2
20260906042711 80 78 3.0 7.0 0.00 0.00 0.00 84 1011.3
20260906041711 80 107 3.0 7.0 0.00 0.00 0.00 83 1011.2
20260906040711 80 78 3.0 8.0 0.00 0.00 0.00 83 1011.2
20260906035711 81 87 4.0 9.0 0.00 0.00 0.00 82 1011.1
20260906034711 81 78 4.0 9.0 0.00 0.00 0.00 81 1011.0
20260906033711 82 65 3.0 8.0 0.00 0.00 0.00 80 1011.0
20260906032710 82 102 2.0 7.0 0.00 0.00 0.00 80 1011.0
20260906031710 82 89 2.0 12.0 0.00 0.00 0.00 80 1011.0
20260906030711 82 91 4.0 9.0 0.00 0.00 0.00 80 1010.8
20260906025711 82 92 4.0 8.0 0.00 0.00 0.00 79 1010.9
20260906023711 82 106 2.0 7.0 0.00 0.00 0.00 79 1010.4
20260906022710 83 61 4.0 8.0 0.00 0.00 0.00 78 1010.3
20260906020710 84 86 3.0 8.0 0.00 0.00 0.00 78 1009.9
20260906015710 85 69 2.0 7.0 0.00 0.00 0.00 77 1009.7
20260906014711 85 52 2.0 5.0 0.00 0.00 0.00 76 1009.4
20260906013710 86 63 2.0 7.0 0.00 0.00 0.00 74 1009.3
20260906012711 87 94 3.0 5.0 0.00 0.00 0.00 73 1009.2
20260906011711 87 67 2.0 3.0 0.00 0.00 0.00 72 1008.9
20260906005710 89 61 2.0 3.0 0.00 0.00 0.00 69 1009.0
20260906004710 89 110 2.0 8.0 0.00 0.00 0.00 68 1009.0
20260906003711 90 122 4.0 8.0 0.00 0.00 0.00 67 1009.1
20260906002711 90 127 5.0 8.0 0.00 0.00 0.00 66 1009.1
20260906001710 90 139 6.0 12.0 0.00 0.00 0.00 66 1008.8
20260906000710 90 146 7.0 13.0 0.00 0.00 0.00 65 1008.6
20260905235710 91 139 7.0 10.0 0.00 0.00 0.00 66 1008.7
20260905234711 91 146 5.0 12.0 0.00 0.00 0.00 64 1008.6
20260905232710 92 147 7.0 12.0 0.00 0.00 0.00 62 1008.6
20260905231710 92 174 9.0 12.0 0.00 0.00 0.00 61 1008.5
20260905230711 92 172 11.0 18.0 0.00 0.00 0.00 60 1008.6
20260905224711 93 140 9.0 15.0 0.00 0.00 0.00 60 1008.5
20260905223711 92 163 11.0 18.0 0.00 0.00 0.00 60 1008.6
20260905222711 93 142 10.0 17.0 0.00 0.00 0.00 59 1008.6
20260905221711 93 173 12.0 17.0 0.00 0.00 0.00 59 1008.8
20260905215710 92 185 10.0 20.0 0.00 0.00 0.00 61 1009.0
20260905214711 92 135 9.0 16.0 0.00 0.00 0.00 62 1009.0
20260905213710 92 118 9.0 20.0 0.00 0.00 0.00 61 1009.0
20260905212711 92 173 11.0 18.0 0.00 0.00 0.00 61 1009.1
20260905211710 92 125 10.0 18.0 0.00 0.00 0.00 60 1009.3
20260905210710 92 183 13.0 21.0 0.00 0.00 0.00 59 1009.3
20260905205711 91 147 9.0 22.0 0.00 0.00 0.00 62 1009.4
20260905204711 91 136 11.0 20.0 0.00 0.00 0.00 62 1009.4
20260905203710 90 122 15.0 21.0 0.00 0.00 0.00 61 1009.5
20260905202710 90 114 13.0 22.0 0.00 0.00 0.00 62 1009.6
20260905201711 90 131 9.0 20.0 0.00 0.00 0.00 62 1010.1
20260905200711 90 107 9.0 20.0 0.00 0.00 0.00 63 1010.6
20260905195710 89 149 12.0 23.0 0.00 0.00 0.00 62 1010.7
20260905194711 89 107 11.0 20.0 0.00 0.00 0.00 62 1010.9
20260905193710 89 93 7.0 15.0 0.00 0.00 0.00 60 1011.2
20260905192710 89 99 12.0 20.0 0.00 0.00 0.00 57 1011.4
20260905191711 88 132 12.0 17.0 0.00 0.00 0.00 59 1011.5
20260905190710 88 114 9.0 20.0 0.00 0.00 0.00 59 1011.7
20260905185711 87 153 11.0 20.0 0.00 0.00 0.00 58 1011.9
20260905183710 87 75 12.0 20.0 0.00 0.00 0.00 58 1012.5
20260905182711 86 78 7.0 18.0 0.00 0.00 0.00 60 1012.6
20260905175711 85 92 11.0 21.0 0.00 0.00 0.00 66 1013.1
20260905174711 84 121 12.0 23.0 0.00 0.00 0.00 69 1013.0
20260905173710 84 133 11.0 20.0 0.00 0.00 0.00 70 1013.0
20260905172710 84 77 13.0 22.0 0.00 0.00 0.00 67 1012.8
20260905171710 84 109 12.0 21.0 0.00 0.00 0.00 67 1013.0
20260905170710 84 60 6.0 15.0 0.00 0.00 0.00 76 1012.9
20260905165710 83 11 7.0 21.0 0.00 0.00 0.00 75 1013.0
20260905164711 83 30 10.0 20.0 0.00 0.00 0.00 76 1013.1
20260905163710 84 57 8.0 20.0 0.00 0.00 0.00 75 1012.9
20260905162710 84 67 7.0 23.0 0.00 0.00 0.00 77 1013.1
20260905161710 83 33 10.0 21.0 0.00 0.00 0.00 78 1013.1
20260905160711 83 62 11.0 21.0 0.00 0.00 0.00 77 1013.3
20260905155710 83 29 12.0 24.0 0.00 0.00 0.00 76 1013.2
20260905154711 83 34 13.0 21.0 0.00 0.00 0.00 75 1012.8
20260905153710 83 325 6.0 18.0 0.00 0.00 0.00 74 1012.7
20260905152711 83 30 7.0 12.0 0.00 0.00 0.00 72 1012.6
20260905150711 84 60 6.0 13.0 0.00 0.00 0.00 70 1012.1
20260905144711 83 25 2.0 9.0 0.00 0.00 0.00 74 1012.1
20260905143710 82 15 5.0 12.0 0.00 0.00 0.00 74 1012.1
20260905142710 81 333 2.0 6.0 0.00 0.00 0.00 76 1011.8
20260905141711 80 20 3.0 6.0 0.00 0.00 0.00 79 1011.6
20260905140711 78 165 3.0 12.0 0.00 0.00 0.00 81 1011.6
20260905135711 77 46 1.0 12.0 0.00 0.00 0.00 83 1011.3
20260905134710 76 47 6.0 12.0 0.00 0.00 0.00 83 1011.8
20260905132711 75 34 2.0 3.0 0.00 0.00 0.00 84 1010.8
20260905131711 75 45 1.0 3.0 0.00 0.00 0.00 85 1010.4
20260905130711 74 53 1.0 2.0 0.00 0.00 0.00 87 1010.2
20260905125711 73 53 0.0 2.0 0.00 0.00 0.00 87 1010.0
20260905124711 73 53 0.0 0.0 0.00 0.00 0.00 87 1009.9
20260905123711 73 53 0.0 2.0 0.00 0.00 0.00 87 1009.9
20260905122711 73 53 0.0 3.0 0.00 0.00 0.00 87 1009.8
20260905120710 73 97 1.0 2.0 0.00 0.00 0.00 86 1009.6
20260905115711 73 83 1.0 2.0 0.00 0.00 0.00 87 1009.3
20260905114711 73 83 1.0 2.0 0.00 0.00 0.00 86 1009.1
20260905113710 73 80 1.0 2.0 0.00 0.00 0.00 85 1008.9
20260905112710 73 165 0.0 1.0 0.00 0.00 0.00 84 1008.8
20260905110711 74 173 1.0 3.0 0.00 0.00 0.00 84 1008.9
20260905105711 74 182 2.0 3.0 0.00 0.00 0.00 83 1008.8
20260905104710 74 170 0.0 0.0 0.00 0.00 0.00 83 1009.1
20260905103711 75 170 0.0 0.0 0.00 0.00 0.00 82 1009.1
20260905102711 75 173 1.0 2.0 0.00 0.00 0.00 82 1009.1
20260905101710 75 173 0.0 3.0 0.00 0.00 0.00 82 1009.0
20260905100710 75 159 1.0 5.0 0.00 0.00 0.00 82 1008.8